[[{"header":{"parameterUnit":"m.s-1","parameterCategory":1,"la1":30.2991,"la2":30.254,"lo1":-89.0895,"lo2":-89.0444,"dy":0.0017,"dx":0.0017,"nx":28,"ny":28,"refTime":"2026-01-07T03:00:00:Z","depth":0,"parameterNumber":2,"parameterNumberName":"U-component_of_WINDS"},"data":[0,0,0,0,0,0,0,0,0,0,0,0,0,0,0,0,0,0,0,0,0,0,0,0,0,0,0,0,0,0,0,0,0,0,0,0,0,0,0,0,0,0,0,0,0,0,0,0,0,0,0,0,0,0,0,0,0,0,0.4143,0.4144,0,0.4189,0.419,0.419,0.4229,0.4229,0.4229,0.423,0.428,0.4281,0.4282,0,0,0,0,0,0,0,0,0,0,0,0,0,0.4092,0.4093,0.4143,0.4144,0.4144,0.4189,0.419,0.4191,0.4229,0.4229,0.423,0.423,0.428,0.4281,0.4282,0,0,0,0,0,0,0,0,0,0,0,0,0,0.4124,0.4093,0.4143,0.4169,0.4172,0.4189,0.419,0.4191,0.4228,0.4229,0.423,0.423,0.4279,0.4281,0.4282,0.4279,0,0,0.4286,0.4287,0,0,0,0,0,0,0,0,0.4122,0.4126,0.4164,0.4167,0.417,0.4204,0.419,0.422,0.4228,0.4207,0.423,0.4231,0.4254,0.4258,0.4265,0.4281,0.4283,0.4286,0.4287,0.4288,0.4288,0,0,0,0,0,0,0,0.412,0.4124,0.4162,0.4165,0.4168,0.4179,0.4184,0.4196,0.4227,0.4209,0.4212,0.4216,0.4256,0.4264,0.4267,0.4284,0.4286,0.4288,0.4289,0.4289,0.4301,0.4301,0,0,0,0,0,0,0.4113,0.4122,0.416,0.4163,0.4147,0.4179,0.4185,0.4192,0.4227,0.4232,0.4216,0.4218,0.4261,0.4265,0.4269,0.4268,0.4288,0.4289,0.429,0.4302,0.4301,0.43,0,0,0,0,0,0,0.4112,0.4116,0.4158,0.4143,0.4149,0.418,0.4187,0.4193,0.4201,0.4232,0.4238,0.4218,0.4262,0.4267,0.4276,0.427,0.429,0.4291,0.4302,0.4301,0.4301,0.4265,0,0,0,0,0,0,0.411,0.4115,0.4113,0.4143,0.415,0.4164,0.4187,0.4194,0.4203,0.4206,0.4235,0.4241,0.4262,0.4274,0.4277,0.4272,0.4292,0.4303,0.4302,0.4301,0.4267,0.4263,0.426,0,0,0,0,0,0.4108,0.4102,0.4113,0.4118,0.4148,0.4163,0.4168,0.4191,0.4202,0.4201,0.4221,0.424,0.427,0.4274,0.4279,0.4274,0.4303,0.4302,0.4301,0.4269,0.4264,0.426,0,0,0,0,0,0,0.4072,0.4106,0.4119,0.4122,0.4139,0.417,0.4169,0.4186,0.4201,0.4203,0.4234,0.424,0.4246,0.4261,0.4265,0.4273,0.4289,0.4289,0.4263,0.4259,0.4255,0.4252,0.4294,0,0,0,0,0,0.4064,0.4072,0.4103,0.4103,0.411,0.4138,0.4146,0.4163,0.4182,0.419,0.4211,0.423,0.4244,0.4252,0.4267,0.427,0.4277,0.4269,0.4265,0.4262,0.4261,0.4265,0.4262,0.4296,0.4296,0.4296,0,0,0.4048,0.4068,0.4072,0.4096,0.4111,0.412,0.4144,0.4152,0.416,0.4192,0.4201,0.4218,0.4241,0.4247,0.4251,0.426,0.4254,0.4261,0.4258,0.4259,0.4263,0.426,0.4257,0.4295,0.4296,0.4296,0,0,0.4024,0.404,0.4042,0.4057,0.4079,0.4098,0.4099,0.4127,0.4138,0.4149,0.4173,0.4183,0.4206,0.4222,0.4233,0.4216,0.4234,0.422,0.4202,0.4205,0.4202,0.42,0.4194,0.4192,0.4219,0.4219,0.4219,0,0.4002,0.4015,0.4041,0.4048,0.4058,0.4087,0.4089,0.4103,0.413,0.4137,0.4146,0.4176,0.4194,0.4205,0.4201,0.4209,0.4211,0.4217,0.42,0.4198,0.4196,0.4192,0.4189,0.4217,0.4218,0.4218,0.4218,0,0.3987,0.3996,0.3995,0.4019,0.403,0.4035,0.4062,0.407,0.4086,0.4104,0.4115,0.4138,0.4158,0.4162,0.4178,0.4175,0.418,0.4194,0.4211,0.4191,0.4187,0.4185,0.4215,0.4215,0.4216,0.4216,0,0,0.394,0.3979,0.3978,0.399,0.4018,0.4026,0.4033,0.4052,0.4058,0.4076,0.4083,0.4102,0.4116,0.4129,0.4148,0.415,0.4136,0.4165,0.4166,0.4159,0.4135,0.4124,0.4121,0.4149,0.4148,0.4148,0.4133,0,0.392,0.3933,0.3956,0.3962,0.3971,0.4,0.4006,0.4024,0.4042,0.4054,0.4074,0.4087,0.4104,0.4112,0.4116,0.4137,0.4132,0.4139,0.4156,0.4157,0.4149,0.4119,0.4107,0.4092,0.4132,0.4132,0.4131,0,0.3898,0.3914,0.392,0.3948,0.3953,0.3958,0.3978,0.3988,0.4011,0.4023,0.4038,0.4058,0.4069,0.4084,0.4099,0.4103,0.4112,0.4124,0.4124,0.4126,0.4142,0.4121,0.4087,0.4085,0.4129,0.4129,0.413,0,0.3863,0.3886,0.3893,0.3902,0.3935,0.3938,0.3953,0.3975,0.3985,0.4003,0.401,0.4029,0.404,0.4054,0.408,0.4089,0.4093,0.411,0.4105,0.4104,0.4104,0.4103,0.4071,0.411,0.411,0.411,0.411,0,0.3838,0.3841,0.3878,0.3882,0.3886,0.3915,0.3919,0.3936,0.3956,0.3965,0.3991,0.3999,0.4033,0.4046,0.4066,0.4076,0.4081,0.4092,0.4097,0.4089,0.4088,0.4095,0.4097,0.4109,0.4109,0.4109,0.4109,0,0.3799,0.3824,0.3833,0.3864,0.3872,0.3874,0.3901,0.3907,0.3927,0.3938,0.3942,0.3973,0.3989,0.4017,0.4041,0.4055,0.4061,0.407,0.4053,0.4056,0.4049,0.4049,0.402,0.4018,0.4058,0.4057,0.4057,0,0.3781,0.3784,0.3815,0.3823,0.3836,0.3847,0.3858,0.3887,0.3897,0.3923,0.3926,0.3944,0.396,0.3985,0.401,0.403,0.4039,0.4028,0.4042,0.4035,0.4039,0.4039,0.404,0.4024,0.4024,0.4023,0.4023,0,0.3747,0.3759,0.3773,0.3791,0.3802,0.3818,0.3835,0.384,0.3873,0.3884,0.39,0.3912,0.3937,0.3955,0.3978,0.3995,0.4015,0.4019,0.4018,0.401,0.4,0.4005,0.4044,0.4019,0.4019,0.402,0.402,0.402,0.3718,0.3722,0.3744,0.3759,0.3775,0.3791,0.3798,0.3819,0.3833,0.3855,0.3871,0.3887,0.3911,0.3944,0.3959,0.3973,0.3982,0.3981,0.3981,0.398,0.3977,0.3998,0.3977,0.3977,0.3977,0.3977,0.3978,0,0.3684,0.3701,0.3714,0.3737,0.3749,0.3767,0.3787,0.3796,0.3809,0.3829,0.3845,0.3865,0.3883,0.391,0.393,0.3936,0.3946,0.3941,0.394,0.3944,0.3968,0.3966,0.3932,0.3932,0.3932,0.3932,0.3932,0.3932,0.3668,0.3676,0.3692,0.3709,0.3726,0.374,0.375,0.3766,0.3782,0.3803,0.3818,0.3835,0.3859,0.3882,0.39,0.3907,0.3914,0.3906,0.3916,0.3938,0.3942,0.3946,0.3944,0.3907,0.3907,0.3891,0.3891,0.3891]},{"header":{"parameterUnit":"m.s-1","parameterCategory":1,"la1":30.2991,"la2":30.254,"lo1":-89.0895,"lo2":-89.0444,"dy":0.0017,"dx":0.0017,"nx":28,"ny":28,"refTime":"2026-01-07T03:00:00:Z","depth":0,"parameterNumber":3,"parameterNumberName":"V-component_of_WINDS"},"data":[0,0,0,0,0,0,0,0,0,0,0,0,0,0,0,0,0,0,0,0,0,0,0,0,0,0,0,0,0,0,0,0,0,0,0,0,0,0,0,0,0,0,0,0,0,0,0,0,0,0,0,0,0,0,0,0,0,0,2.7907,2.7907,0,2.7918,2.7918,2.7919,2.7938,2.7938,2.7938,2.7939,2.7946,2.7946,2.7946,0,0,0,0,0,0,0,0,0,0,0,0,0,2.7898,2.7898,2.7907,2.7907,2.7907,2.7918,2.7919,2.7919,2.7938,2.7938,2.7938,2.7939,2.7946,2.7946,2.7945,0,0,0,0,0,0,0,0,0,0,0,0,0,2.7905,2.7898,2.7907,2.7918,2.7919,2.7918,2.7919,2.7919,2.7937,2.7938,2.7939,2.7939,2.7946,2.7946,2.7945,2.7933,0,0,2.7945,2.7945,0,0,0,0,0,0,0,0,2.7904,2.7905,2.7916,2.7917,2.7919,2.7927,2.7918,2.7923,2.7937,2.793,2.7939,2.7939,2.7939,2.7939,2.794,2.7933,2.7934,2.7945,2.7945,2.7945,2.7944,0,0,0,0,0,0,0,2.7904,2.7905,2.7911,2.7916,2.7918,2.7921,2.7923,2.7919,2.7931,2.7931,2.7932,2.7934,2.794,2.794,2.794,2.7934,2.7945,2.7945,2.7944,2.7944,2.7919,2.7919,0,0,0,0,0,0,2.7902,2.7904,2.7911,2.7912,2.7913,2.7921,2.7923,2.7924,2.7931,2.7933,2.7933,2.7935,2.794,2.7941,2.7941,2.7928,2.7945,2.7944,2.7944,2.792,2.7919,2.7918,0,0,0,0,0,0,2.7902,2.7903,2.791,2.7908,2.791,2.7921,2.7922,2.7924,2.7925,2.7933,2.7935,2.7932,2.7941,2.7941,2.7936,2.7928,2.7944,2.7944,2.792,2.792,2.7919,2.7901,0,0,0,0,0,0,2.7902,2.7903,2.7899,2.7908,2.791,2.7906,2.7921,2.7924,2.7925,2.7926,2.7932,2.7934,2.7941,2.7936,2.7935,2.7928,2.7944,2.7921,2.792,2.7919,2.7903,2.79,2.7898,0,0,0,0,0,2.7901,2.7892,2.7898,2.7899,2.7905,2.7906,2.7906,2.7916,2.7924,2.792,2.7926,2.7934,2.7929,2.7935,2.7935,2.7927,2.7922,2.792,2.7919,2.7904,2.7901,2.7898,0,0,0,0,0,0,2.7879,2.7893,2.7901,2.7894,2.7899,2.7909,2.7904,2.7912,2.7914,2.7915,2.7926,2.7927,2.792,2.7923,2.793,2.7917,2.7927,2.7925,2.7915,2.7912,2.791,2.7909,2.7944,0,0,0,0,0,2.7874,2.7874,2.7886,2.7879,2.7881,2.7892,2.7893,2.79,2.7905,2.7906,2.7912,2.7915,2.7914,2.7913,2.7913,2.7903,2.7905,2.7898,2.7896,2.7894,2.7892,2.7889,2.7886,2.7915,2.7915,2.7915,0,0,2.7862,2.787,2.7869,2.7875,2.788,2.7879,2.7894,2.7892,2.7891,2.7905,2.7902,2.7905,2.7909,2.7902,2.7899,2.7904,2.7885,2.7892,2.7891,2.789,2.7887,2.7884,2.7882,2.7914,2.7914,2.7914,0,0,2.7841,2.7847,2.7843,2.7847,2.7855,2.7862,2.7861,2.7871,2.7875,2.7871,2.7882,2.7881,2.7879,2.7882,2.7883,2.7865,2.7873,2.7865,2.7852,2.7848,2.7846,2.7844,2.7838,2.7836,2.7863,2.7863,2.7863,0,2.7825,2.7826,2.7839,2.7837,2.784,2.7855,2.785,2.7854,2.786,2.7861,2.7867,2.7867,2.787,2.7864,2.786,2.786,2.7859,2.7864,2.7846,2.7844,2.7842,2.7837,2.7834,2.7862,2.7862,2.7863,2.7863,0,2.7807,2.7807,2.7802,2.7811,2.7812,2.7809,2.7821,2.7821,2.7829,2.7835,2.7832,2.7837,2.7839,2.7838,2.7844,2.7833,2.7837,2.7844,2.7854,2.7838,2.7833,2.7831,2.7861,2.7861,2.7862,2.7862,0,0,2.777,2.7788,2.7786,2.779,2.78,2.78,2.7798,2.7802,2.7802,2.7805,2.7804,2.7803,2.7811,2.7812,2.7819,2.7816,2.7802,2.7824,2.7824,2.782,2.7791,2.7786,2.7783,2.7807,2.7807,2.7807,2.7791,0,2.7751,2.775,2.7762,2.7757,2.7758,2.7773,2.7771,2.7776,2.7783,2.7784,2.779,2.779,2.78,2.7801,2.7798,2.7804,2.7796,2.7805,2.7805,2.7805,2.7804,2.7781,2.7775,2.776,2.7789,2.7789,2.7789,0,2.7729,2.7734,2.773,2.7742,2.7743,2.7741,2.7746,2.7747,2.7753,2.7758,2.7761,2.777,2.7768,2.7778,2.7775,2.7781,2.7782,2.7785,2.7784,2.7785,2.7796,2.7781,2.7755,2.7753,2.7785,2.7786,2.7786,0,2.7704,2.771,2.7709,2.7712,2.7726,2.7724,2.7729,2.7737,2.7739,2.7743,2.7744,2.7747,2.7749,2.775,2.776,2.7766,2.7756,2.7766,2.776,2.7759,2.7757,2.7757,2.7731,2.7756,2.7756,2.7756,2.7756,0,2.7682,2.7679,2.7698,2.7697,2.7694,2.7708,2.7704,2.7711,2.7718,2.7718,2.773,2.7729,2.7742,2.7742,2.7749,2.7747,2.7747,2.775,2.7752,2.775,2.7749,2.775,2.7752,2.7756,2.7756,2.7756,2.7756,0,2.7653,2.7666,2.7666,2.768,2.7683,2.7681,2.7692,2.7691,2.7699,2.7699,2.77,2.7712,2.7714,2.7724,2.7726,2.7731,2.7726,2.7729,2.7724,2.7726,2.7719,2.7719,2.7693,2.769,2.7717,2.7716,2.7716,0,2.7639,2.7637,2.7652,2.7654,2.7659,2.7662,2.7665,2.7678,2.768,2.7689,2.7687,2.7691,2.7694,2.7696,2.7704,2.7706,2.7711,2.7701,2.7711,2.7709,2.7711,2.7712,2.7712,2.7699,2.7699,2.7698,2.7698,0,2.7611,2.7618,2.7623,2.763,2.7634,2.7639,2.7646,2.7646,2.7661,2.7663,2.7666,2.7669,2.7674,2.7677,2.7681,2.7685,2.7694,2.7695,2.7694,2.7691,2.7689,2.7691,2.7719,2.7696,2.7696,2.7696,2.7696,2.7696,2.7589,2.7589,2.76,2.7605,2.7612,2.7618,2.7619,2.7628,2.7632,2.7638,2.7645,2.7648,2.7655,2.7663,2.7666,2.7668,2.7673,2.767,2.767,2.7669,2.7668,2.7688,2.7668,2.7668,2.7669,2.7669,2.7669,0,2.7563,2.7572,2.7576,2.7586,2.759,2.76,2.7608,2.761,2.7613,2.762,2.7624,2.7628,2.7631,2.7641,2.7645,2.7644,2.7648,2.7645,2.7645,2.7646,2.7663,2.7664,2.7641,2.7641,2.7641,2.7641,2.7641,2.7641,2.755,2.7551,2.756,2.7564,2.7572,2.7576,2.758,2.7586,2.7592,2.7596,2.76,2.7607,2.7615,2.762,2.7623,2.7626,2.7627,2.7622,2.7626,2.7642,2.7645,2.7647,2.7648,2.7622,2.7622,2.7609,2.7609,2.7609]}]]